Time,TemperatureF,DewpointF,PressureIn,WindDirection,WindDirectionDegrees,WindSpeedMPH,WindSpeedGustMPH,Humidity,HourlyPrecipIn,Conditions,Clouds,dailyrainin,SoftwareType,DateUTC
2013-02-25 00:00:00,26.8,25.6,29.80,South,189,1.0,7.0,95,0.00,,---,0.00,VWS V14.01,2013-02-25 05:00:00,
2013-02-25 00:05:00,26.7,25.5,29.80,SSW,211,3.0,4.0,95,0.00,,---,0.00,VWS V14.01,2013-02-25 05:05:00,
2013-02-25 00:10:00,26.7,25.5,29.80,SW,228,3.0,6.0,95,0.00,,---,0.00,VWS V14.01,2013-02-25 05:10:00,
2013-02-25 00:15:00,26.7,25.5,29.80,WSW,245,2.0,6.0,95,0.00,,---,0.00,VWS V14.01,2013-02-25 05:15:00,
2013-02-25 00:20:00,26.7,25.5,29.80,SW,222,1.0,6.0,95,0.00,,---,0.00,VWS V14.01,2013-02-25 05:20:00,
2013-02-25 00:25:00,26.7,25.5,29.80,SW,225,2.0,6.0,95,0.00,,---,0.00,VWS V14.01,2013-02-25 05:25:00,
2013-02-25 00:30:00,26.6,25.4,29.80,WSW,248,2.0,6.0,95,0.00,,---,0.00,VWS V14.01,2013-02-25 05:30:00,
2013-02-25 00:35:00,26.6,25.4,29.80,WSW,255,3.0,4.0,95,0.00,,---,0.00,VWS V14.01,2013-02-25 05:35:00,
2013-02-25 00:40:00,26.5,25.3,29.81,WSW,238,3.0,7.0,95,0.00,,---,0.00,VWS V14.01,2013-02-25 05:40:00,
2013-02-25 00:45:00,26.5,25.3,29.81,WSW,254,2.0,7.0,95,0.00,,---,0.00,VWS V14.01,2013-02-25 05:45:00,
2013-02-25 00:50:00,26.4,25.2,29.81,SW,220,2.0,7.0,95,0.00,,---,0.00,VWS V14.01,2013-02-25 05:50:00,
2013-02-25 00:55:00,26.3,25.1,29.81,SW,227,1.0,7.0,95,0.00,,---,0.00,VWS V14.01,2013-02-25 05:55:00,
2013-02-25 01:00:00,26.3,25.1,29.81,West,268,2.0,7.0,95,0.00,,---,0.00,VWS V14.01,2013-02-25 06:00:00,
2013-02-25 01:05:00,26.2,24.7,29.81,WSW,250,3.0,4.0,94,0.00,,---,0.00,VWS V14.01,2013-02-25 06:05:00,
2013-02-25 01:10:00,26.1,24.6,29.82,SW,236,1.0,5.0,94,0.00,,---,0.00,VWS V14.01,2013-02-25 06:10:00,
2013-02-25 01:15:00,26.0,24.5,29.82,West,263,2.0,5.0,94,0.00,,---,0.00,VWS V14.01,2013-02-25 06:15:00,
2013-02-25 01:20:00,26.0,24.5,29.82,SSW,208,0.0,5.0,94,0.00,,---,0.00,VWS V14.01,2013-02-25 06:20:00,
2013-02-25 01:25:00,25.9,24.4,29.82,SW,230,2.0,5.0,94,0.00,,---,0.00,VWS V14.01,2013-02-25 06:25:00,
2013-02-25 01:30:00,25.8,24.3,29.82,West,263,2.0,7.0,94,0.00,,---,0.00,VWS V14.01,2013-02-25 06:30:00,
2013-02-25 01:35:00,25.7,24.2,29.82,West,279,0.0,1.0,94,0.00,,---,0.00,VWS V14.01,2013-02-25 06:35:00,
2013-02-25 01:40:00,25.8,24.3,29.82,WSW,248,6.0,6.0,94,0.00,,---,0.00,VWS V14.01,2013-02-25 06:40:00,
2013-02-25 01:45:00,25.6,24.1,29.82,WSW,240,1.0,7.0,94,0.00,,---,0.00,VWS V14.01,2013-02-25 06:45:00,
2013-02-25 01:50:00,25.6,24.1,29.82,WSW,249,3.0,7.0,94,0.00,,---,0.00,VWS V14.01,2013-02-25 06:50:00,
2013-02-25 01:55:00,25.4,23.9,29.82,WSW,242,2.0,9.0,94,0.00,,---,0.00,VWS V14.01,2013-02-25 06:55:00,
2013-02-25 02:00:00,25.3,23.8,29.82,WSW,243,3.0,9.0,94,0.00,,---,0.00,VWS V14.01,2013-02-25 07:00:00,
2013-02-25 02:05:00,25.3,23.8,29.82,SSW,211,4.0,6.0,94,0.00,,---,0.00,VWS V14.01,2013-02-25 07:05:00,
2013-02-25 02:10:00,25.2,23.7,29.82,WSW,254,3.0,6.0,94,0.00,,---,0.00,VWS V14.01,2013-02-25 07:10:00,
2013-02-25 02:15:00,25.2,23.7,29.82,SW,221,4.0,6.0,94,0.00,,---,0.00,VWS V14.01,2013-02-25 07:15:00,
2013-02-25 02:20:00,25.1,23.6,29.82,West,259,1.0,6.0,94,0.00,,---,0.00,VWS V14.01,2013-02-25 07:20:00,
2013-02-25 02:25:00,25.1,23.6,29.82,SW,232,2.0,6.0,94,0.00,,---,0.00,VWS V14.01,2013-02-25 07:25:00,
2013-02-25 02:30:00,25.0,23.5,29.82,SW,227,1.0,6.0,94,0.00,,---,0.00,VWS V14.01,2013-02-25 07:30:00,
2013-02-25 02:35:00,25.0,23.5,29.82,WSW,252,1.0,2.0,94,0.00,,---,0.00,VWS V14.01,2013-02-25 07:35:00,
2013-02-25 02:40:00,25.1,23.6,29.82,WSW,252,2.0,3.0,94,0.00,,---,0.00,VWS V14.01,2013-02-25 07:40:00,
2013-02-25 02:45:00,25.1,23.6,29.82,WSW,244,1.0,4.0,94,0.00,,---,0.00,VWS V14.01,2013-02-25 07:45:00,
2013-02-25 02:50:00,25.1,23.6,29.82,WSW,250,2.0,4.0,94,0.00,,---,0.00,VWS V14.01,2013-02-25 07:50:00,
2013-02-25 02:55:00,25.0,23.5,29.82,SW,225,0.0,5.0,94,0.00,,---,0.00,VWS V14.01,2013-02-25 07:55:00,
2013-02-25 03:00:00,25.0,23.5,29.82,WSW,249,3.0,9.0,94,0.00,,---,0.00,VWS V14.01,2013-02-25 08:00:00,
2013-02-25 03:05:00,24.8,23.3,29.82,WSW,254,2.0,2.0,94,0.00,,---,0.00,VWS V14.01,2013-02-25 08:05:00,
2013-02-25 03:10:00,24.7,23.2,29.82,West,261,1.0,9.0,94,0.00,,---,0.00,VWS V14.01,2013-02-25 08:10:00,
2013-02-25 03:15:00,24.6,23.1,29.82,West,259,3.0,9.0,94,0.00,,---,0.00,VWS V14.01,2013-02-25 08:15:00,
2013-02-25 03:20:00,24.3,22.8,29.82,SSW,212,2.0,9.0,94,0.00,,---,0.00,VWS V14.01,2013-02-25 08:20:00,
2013-02-25 03:25:00,24.3,22.8,29.83,WSW,243,1.0,9.0,94,0.00,,---,0.00,VWS V14.01,2013-02-25 08:25:00,
2013-02-25 03:30:00,24.2,22.7,29.83,South,189,1.0,9.0,94,0.00,,---,0.00,VWS V14.01,2013-02-25 08:30:00,
2013-02-25 03:35:00,24.2,22.7,29.83,West,267,2.0,2.0,94,0.00,,---,0.00,VWS V14.01,2013-02-25 08:35:00,
2013-02-25 03:40:00,24.2,22.7,29.83,SW,236,4.0,4.0,94,0.00,,---,0.00,VWS V14.01,2013-02-25 08:40:00,
2013-02-25 03:45:00,24.1,22.6,29.83,West,266,3.0,5.0,94,0.00,,---,0.00,VWS V14.01,2013-02-25 08:45:00,
2013-02-25 03:50:00,24.1,22.6,29.84,West,279,1.0,6.0,94,0.00,,---,0.00,VWS V14.01,2013-02-25 08:50:00,
2013-02-25 03:55:00,24.0,22.5,29.84,SSW,211,1.0,6.0,94,0.00,,---,0.00,VWS V14.01,2013-02-25 08:55:00,
2013-02-25 04:00:00,23.9,22.4,29.84,WSW,255,4.0,7.0,94,0.00,,---,0.00,VWS V14.01,2013-02-25 09:00:00,
2013-02-25 04:05:00,23.6,22.1,29.84,WSW,251,3.0,7.0,94,0.00,,---,0.00,VWS V14.01,2013-02-25 09:05:00,
2013-02-25 04:10:00,23.6,22.1,29.85,WSW,244,2.0,7.0,94,0.00,,---,0.00,VWS V14.01,2013-02-25 09:10:00,
2013-02-25 04:15:00,23.5,22.0,29.85,WSW,246,4.0,7.0,94,0.00,,---,0.00,VWS V14.01,2013-02-25 09:15:00,
2013-02-25 04:20:00,23.5,22.0,29.85,SW,236,3.0,7.0,94,0.00,,---,0.00,VWS V14.01,2013-02-25 09:20:00,
2013-02-25 04:25:00,23.5,22.0,29.85,WNW,300,2.0,7.0,94,0.00,,---,0.00,VWS V14.01,2013-02-25 09:25:00,
2013-02-25 04:30:00,23.5,22.0,29.86,SW,217,3.0,7.0,94,0.00,,---,0.00,VWS V14.01,2013-02-25 09:30:00,
2013-02-25 04:35:00,23.5,22.0,29.86,West,272,0.0,2.0,94,0.00,,---,0.00,VWS V14.01,2013-02-25 09:35:00,
2013-02-25 04:40:00,23.4,21.9,29.86,WSW,251,4.0,5.0,94,0.00,,---,0.00,VWS V14.01,2013-02-25 09:40:00,
2013-02-25 04:45:00,23.4,21.9,29.86,WSW,248,1.0,5.0,94,0.00,,---,0.00,VWS V14.01,2013-02-25 09:45:00,
2013-02-25 04:50:00,23.4,21.9,29.87,WSW,253,1.0,5.0,94,0.00,,---,0.00,VWS V14.01,2013-02-25 09:50:00,
2013-02-25 04:55:00,23.4,21.9,29.87,WSW,255,5.0,6.0,94,0.00,,---,0.00,VWS V14.01,2013-02-25 09:55:00,
2013-02-25 05:00:00,23.3,21.8,29.87,WSW,254,1.0,6.0,94,0.00,,---,0.00,VWS V14.01,2013-02-25 10:00:00,
2013-02-25 05:05:00,23.3,21.8,29.88,SW,219,2.0,5.0,94,0.00,,---,0.00,VWS V14.01,2013-02-25 10:05:00,
2013-02-25 05:10:00,23.3,21.8,29.88,SW,234,3.0,7.0,94,0.00,,---,0.00,VWS V14.01,2013-02-25 10:10:00,
2013-02-25 05:15:00,23.2,21.7,29.88,WSW,240,5.0,7.0,94,0.00,,---,0.00,VWS V14.01,2013-02-25 10:15:00,
2013-02-25 05:20:00,23.1,21.6,29.88,West,271,2.0,8.0,94,0.00,,---,0.00,VWS V14.01,2013-02-25 10:20:00,
2013-02-25 05:25:00,23.1,21.6,29.88,SW,236,5.0,8.0,94,0.00,,---,0.00,VWS V14.01,2013-02-25 10:25:00,
2013-02-25 05:30:00,23.0,21.5,29.88,SW,236,3.0,8.0,94,0.00,,---,0.00,VWS V14.01,2013-02-25 10:30:00,
2013-02-25 05:35:00,22.9,21.4,29.88,SW,225,4.0,6.0,94,0.00,,---,0.00,VWS V14.01,2013-02-25 10:35:00,
2013-02-25 05:40:00,22.9,21.4,29.88,SW,226,2.0,7.0,94,0.00,,---,0.00,VWS V14.01,2013-02-25 10:40:00,
2013-02-25 05:45:00,22.7,21.2,29.88,WSW,244,5.0,11.0,94,0.00,,---,0.00,VWS V14.01,2013-02-25 10:45:00,
2013-02-25 05:50:00,22.6,21.1,29.89,West,271,5.0,14.0,94,0.00,,---,0.00,VWS V14.01,2013-02-25 10:50:00,
2013-02-25 05:55:00,22.5,21.0,29.89,SW,215,4.0,14.0,94,0.00,,---,0.00,VWS V14.01,2013-02-25 10:55:00,
2013-02-25 06:00:00,22.5,21.0,29.89,SW,215,3.0,14.0,94,0.00,,---,0.00,VWS V14.01,2013-02-25 11:00:00,
2013-02-25 06:05:00,22.4,20.9,29.89,WSW,251,1.0,4.0,94,0.00,,---,0.00,VWS V14.01,2013-02-25 11:05:00,
2013-02-25 06:10:00,22.4,20.9,29.90,WSW,246,1.0,9.0,94,0.00,,---,0.00,VWS V14.01,2013-02-25 11:10:00,
2013-02-25 06:15:00,22.3,20.8,29.90,West,264,2.0,9.0,94,0.00,,---,0.00,VWS V14.01,2013-02-25 11:15:00,
2013-02-25 06:20:00,22.1,20.6,29.90,WSW,237,1.0,9.0,94,0.00,,---,0.00,VWS V14.01,2013-02-25 11:20:00,
2013-02-25 06:25:00,22.1,20.6,29.91,SW,228,2.0,9.0,94,0.00,,---,0.00,VWS V14.01,2013-02-25 11:25:00,
2013-02-25 06:30:00,22.1,20.6,29.91,WSW,239,0.0,9.0,94,0.00,,---,0.00,VWS V14.01,2013-02-25 11:30:00,
2013-02-25 06:35:00,22.1,20.6,29.91,WNW,289,0.0,1.0,94,0.00,,---,0.00,VWS V14.01,2013-02-25 11:35:00,
2013-02-25 06:40:00,22.2,20.5,29.92,WSW,253,0.0,3.0,93,0.00,,---,0.00,VWS V14.01,2013-02-25 11:40:00,
2013-02-25 06:45:00,22.3,20.6,29.92,WSW,253,0.0,3.0,93,0.00,,---,0.00,VWS V14.01,2013-02-25 11:45:00,
2013-02-25 06:50:00,22.4,20.7,29.92,WSW,253,0.0,3.0,93,0.00,,---,0.00,VWS V14.01,2013-02-25 11:50:00,
2013-02-25 06:55:00,22.5,20.8,29.93,WSW,253,1.0,3.0,93,0.00,,---,0.00,VWS V14.01,2013-02-25 11:55:00,
2013-02-25 07:00:00,22.6,20.9,29.93,West,281,1.0,3.0,93,0.00,,---,0.00,VWS V14.01,2013-02-25 12:00:00,
2013-02-25 07:05:00,22.7,21.0,29.93,WNW,294,0.0,1.0,93,0.00,,---,0.00,VWS V14.01,2013-02-25 12:05:00,
2013-02-25 07:10:00,22.6,20.9,29.93,West,268,4.0,7.0,93,0.00,,---,0.00,VWS V14.01,2013-02-25 12:10:00,
2013-02-25 07:15:00,22.5,20.8,29.93,West,273,1.0,7.0,93,0.00,,---,0.00,VWS V14.01,2013-02-25 12:15:00,
2013-02-25 07:20:00,22.5,20.8,29.94,West,261,1.0,7.0,93,0.00,,---,0.00,VWS V14.01,2013-02-25 12:20:00,
2013-02-25 07:25:00,22.5,20.8,29.94,West,277,1.0,7.0,93,0.00,,---,0.00,VWS V14.01,2013-02-25 12:25:00,
2013-02-25 07:30:00,22.5,20.8,29.94,SW,231,3.0,7.0,93,0.00,,---,0.00,VWS V14.01,2013-02-25 12:30:00,
2013-02-25 07:35:00,22.5,20.8,29.94,SW,226,0.0,1.0,93,0.00,,---,0.00,VWS V14.01,2013-02-25 12:35:00,
2013-02-25 07:40:00,22.7,21.0,29.94,SW,226,0.0,2.0,93,0.00,,---,0.00,VWS V14.01,2013-02-25 12:40:00,
2013-02-25 07:45:00,22.9,21.4,29.94,SW,226,0.0,2.0,94,0.00,,---,0.00,VWS V14.01,2013-02-25 12:45:00,
2013-02-25 07:50:00,23.2,21.5,29.94,SW,226,0.0,2.0,93,0.00,,---,0.00,VWS V14.01,2013-02-25 12:50:00,
2013-02-25 07:55:00,23.5,22.0,29.95,SW,226,0.0,2.0,94,0.00,,---,0.00,VWS V14.01,2013-02-25 12:55:00,
2013-02-25 08:00:00,23.7,22.2,29.95,SW,226,0.0,2.0,94,0.00,,---,0.00,VWS V14.01,2013-02-25 13:00:00,
2013-02-25 08:05:00,23.9,22.2,29.95,SW,226,1.0,1.0,93,0.00,,---,0.00,VWS V14.01,2013-02-25 13:05:00,
2013-02-25 08:10:00,24.1,22.4,29.95,SW,226,1.0,2.0,93,0.00,,---,0.00,VWS V14.01,2013-02-25 13:10:00,
2013-02-25 08:15:00,24.2,22.5,29.95,SW,226,0.0,2.0,93,0.00,,---,0.00,VWS V14.01,2013-02-25 13:15:00,
2013-02-25 08:20:00,24.5,23.0,29.95,West,268,1.0,6.0,94,0.00,,---,0.00,VWS V14.01,2013-02-25 13:20:00,
2013-02-25 08:25:00,24.7,23.2,29.95,West,261,1.0,6.0,94,0.00,,---,0.00,VWS V14.01,2013-02-25 13:25:00,
2013-02-25 08:30:00,24.3,22.8,29.94,West,262,2.0,15.0,94,0.00,,---,0.00,VWS V14.01,2013-02-25 13:30:00,
2013-02-25 08:35:00,24.0,22.5,29.94,WNW,296,6.0,7.0,94,0.00,,---,0.00,VWS V14.01,2013-02-25 13:35:00,
2013-02-25 08:40:00,23.9,22.4,29.95,WNW,291,5.0,13.0,94,0.00,,---,0.00,VWS V14.01,2013-02-25 13:40:00,
2013-02-25 08:45:00,23.7,22.2,29.95,West,263,7.0,13.0,94,0.00,,---,0.00,VWS V14.01,2013-02-25 13:45:00,
2013-02-25 08:50:00,23.7,22.2,29.95,West,272,1.0,13.0,94,0.00,,---,0.00,VWS V14.01,2013-02-25 13:50:00,
2013-02-25 08:55:00,23.7,22.2,29.95,SW,223,2.0,13.0,94,0.00,,---,0.00,VWS V14.01,2013-02-25 13:55:00,
2013-02-25 09:00:00,24.0,22.5,29.95,West,280,2.0,13.0,94,0.00,,---,0.00,VWS V14.01,2013-02-25 14:00:00,
2013-02-25 09:05:00,24.4,22.9,29.96,WSW,251,2.0,6.0,94,0.00,,---,0.00,VWS V14.01,2013-02-25 14:05:00,
2013-02-25 09:11:00,24.6,23.4,29.96,West,260,3.0,6.0,95,0.00,,---,0.00,VWS V14.01,2013-02-25 14:11:00,
2013-02-25 09:16:00,24.8,23.6,29.96,WNW,294,1.0,8.0,95,0.00,,---,0.00,VWS V14.01,2013-02-25 14:16:00,
2013-02-25 09:21:00,25.0,23.8,29.97,NW,306,0.0,10.0,95,0.00,,---,0.00,VWS V14.01,2013-02-25 14:21:00,
2013-02-25 09:26:00,25.3,24.1,29.97,WSW,250,4.0,10.0,95,0.00,,---,0.00,VWS V14.01,2013-02-25 14:26:00,
2013-02-25 09:30:00,24.9,23.4,29.97,WNW,288,6.0,15.0,94,0.00,,---,0.00,VWS V14.01,2013-02-25 14:30:00,
2013-02-25 09:31:00,25.2,24.0,29.97,WSW,247,7.0,12.0,95,0.00,,---,0.00,VWS V14.01,2013-02-25 14:31:00,
2013-02-25 09:36:00,24.8,23.3,29.97,SW,218,4.0,11.0,94,0.00,,---,0.00,VWS V14.01,2013-02-25 14:36:00,
2013-02-25 09:41:00,24.7,23.2,29.97,WSW,248,6.0,12.0,94,0.00,,---,0.00,VWS V14.01,2013-02-25 14:41:00,
2013-02-25 09:46:00,24.9,23.4,29.97,WSW,254,4.0,12.0,94,0.00,,---,0.00,VWS V14.01,2013-02-25 14:46:00,
2013-02-25 09:51:00,25.2,24.0,29.97,WSW,242,6.0,12.0,95,0.00,,---,0.00,VWS V14.01,2013-02-25 14:51:00,
2013-02-25 09:56:00,25.4,24.2,29.97,West,265,5.0,12.0,95,0.00,,---,0.00,VWS V14.01,2013-02-25 14:56:00,
2013-02-25 10:00:00,26.2,25.0,29.98,West,261,0.0,12.0,95,0.00,,---,0.00,VWS V14.01,2013-02-25 15:00:00,
2013-02-25 10:01:00,25.7,24.5,29.98,West,269,4.0,12.0,95,0.00,,---,0.00,VWS V14.01,2013-02-25 15:01:00,
2013-02-25 10:06:00,26.3,25.1,29.98,WSW,247,4.0,5.0,95,0.00,,---,0.00,VWS V14.01,2013-02-25 15:06:00,
2013-02-25 10:11:00,26.6,25.4,29.98,SW,233,1.0,5.0,95,0.00,,---,0.00,VWS V14.01,2013-02-25 15:11:00,
2013-02-25 10:16:00,26.9,25.7,29.98,WSW,240,4.0,5.0,95,0.00,,---,0.00,VWS V14.01,2013-02-25 15:16:00,
2013-02-25 10:21:00,26.8,25.6,29.98,WNW,282,4.0,9.0,95,0.00,,---,0.00,VWS V14.01,2013-02-25 15:21:00,
2013-02-25 10:26:00,26.6,25.4,29.98,WSW,248,5.0,13.0,95,0.00,,---,0.00,VWS V14.01,2013-02-25 15:26:00,
2013-02-25 10:30:00,26.7,25.5,29.98,West,281,7.0,13.0,95,0.00,,---,0.00,VWS V14.01,2013-02-25 15:30:00,
2013-02-25 10:31:00,26.7,25.5,29.98,West,268,6.0,13.0,95,0.00,,---,0.00,VWS V14.01,2013-02-25 15:31:00,
2013-02-25 10:36:00,26.7,25.5,29.98,WSW,253,9.0,11.0,95,0.00,,---,0.00,VWS V14.01,2013-02-25 15:36:00,
2013-02-25 10:41:00,26.6,25.4,29.98,SW,231,5.0,12.0,95,0.00,,---,0.00,VWS V14.01,2013-02-25 15:41:00,
2013-02-25 10:46:00,26.5,25.3,29.98,West,273,6.0,13.0,95,0.00,,---,0.00,VWS V14.01,2013-02-25 15:46:00,
2013-02-25 10:51:00,26.5,25.3,29.98,WSW,250,10.0,13.0,95,0.00,,---,0.00,VWS V14.01,2013-02-25 15:51:00,
2013-02-25 10:56:00,26.6,25.4,29.98,West,263,4.0,13.0,95,0.00,,---,0.00,VWS V14.01,2013-02-25 15:56:00,
2013-02-25 11:00:00,27.5,26.3,29.98,WNW,295,6.0,13.0,95,0.00,,---,0.00,VWS V14.01,2013-02-25 16:00:00,
2013-02-25 11:01:00,27.1,25.9,29.99,SW,236,1.0,13.0,95,0.00,,---,0.00,VWS V14.01,2013-02-25 16:01:00,
2013-02-25 11:06:00,27.5,26.3,29.98,WSW,242,4.0,6.0,95,0.00,,---,0.00,VWS V14.01,2013-02-25 16:06:00,
2013-02-25 11:11:00,27.7,26.5,29.98,WSW,250,2.0,8.0,95,0.00,,---,0.00,VWS V14.01,2013-02-25 16:11:00,
2013-02-25 11:16:00,27.9,26.7,29.98,SW,225,8.0,11.0,95,0.00,,---,0.00,VWS V14.01,2013-02-25 16:16:00,
2013-02-25 11:21:00,27.2,26.0,29.98,SW,218,9.0,12.0,95,0.00,,---,0.00,VWS V14.01,2013-02-25 16:21:00,
2013-02-25 11:26:00,27.2,26.0,29.98,West,269,2.0,12.0,95,0.00,,---,0.00,VWS V14.01,2013-02-25 16:26:00,
2013-02-25 11:30:00,27.4,26.2,29.98,WSW,250,13.0,13.0,95,0.00,,---,0.00,VWS V14.01,2013-02-25 16:30:00,
2013-02-25 11:31:00,27.6,26.4,29.98,WSW,240,5.0,12.0,95,0.00,,---,0.00,VWS V14.01,2013-02-25 16:31:00,
2013-02-25 11:36:00,27.3,26.1,29.98,SW,221,9.0,16.0,95,0.00,,---,0.00,VWS V14.01,2013-02-25 16:36:00,
2013-02-25 11:41:00,27.1,25.6,29.98,WSW,252,5.0,16.0,94,0.00,,---,0.00,VWS V14.01,2013-02-25 16:41:00,
2013-02-25 11:46:00,27.3,25.8,29.98,WSW,257,5.0,16.0,94,0.00,,---,0.00,VWS V14.01,2013-02-25 16:46:00,
2013-02-25 11:51:00,27.8,26.3,29.99,West,267,4.0,16.0,94,0.00,,---,0.00,VWS V14.01,2013-02-25 16:51:00,
2013-02-25 11:56:00,27.5,26.0,29.98,SSW,213,3.0,16.0,94,0.00,,---,0.00,VWS V14.01,2013-02-25 16:56:00,
2013-02-25 12:00:00,28.3,26.8,29.99,WSW,246,5.0,16.0,94,0.00,,---,0.00,VWS V14.01,2013-02-25 17:00:00,
2013-02-25 12:01:00,28.0,26.5,29.99,WSW,248,4.0,16.0,94,0.00,,---,0.00,VWS V14.01,2013-02-25 17:01:00,
2013-02-25 12:06:00,28.4,27.1,29.99,West,262,1.0,6.0,95,0.00,,---,0.00,VWS V14.01,2013-02-25 17:06:00,
2013-02-25 12:11:00,29.3,28.0,29.99,SW,223,2.0,6.0,95,0.00,,---,0.00,VWS V14.01,2013-02-25 17:11:00,
2013-02-25 12:16:00,29.6,28.4,29.99,SSW,203,0.0,6.0,95,0.00,,---,0.00,VWS V14.01,2013-02-25 17:16:00,
2013-02-25 12:21:00,29.8,28.5,29.99,SSW,194,1.0,6.0,95,0.00,,---,0.00,VWS V14.01,2013-02-25 17:21:00,
2013-02-25 12:26:00,29.9,28.6,29.99,SW,221,7.0,7.0,95,0.00,,---,0.00,VWS V14.01,2013-02-25 17:26:00,
2013-02-25 12:30:00,29.4,28.1,30.00,SW,218,6.0,9.0,95,0.00,,---,0.00,VWS V14.01,2013-02-25 17:30:00,
2013-02-25 12:31:00,29.8,28.5,29.99,SW,223,8.0,9.0,95,0.00,,---,0.00,VWS V14.01,2013-02-25 17:31:00,
2013-02-25 12:36:00,29.6,28.4,30.00,SW,229,7.0,10.0,95,0.00,,---,0.00,VWS V14.01,2013-02-25 17:36:00,
2013-02-25 12:41:00,30.2,28.9,30.00,SW,221,4.0,10.0,95,0.00,,---,0.00,VWS V14.01,2013-02-25 17:41:00,
2013-02-25 12:46:00,30.2,28.9,30.00,WNW,293,3.0,10.0,95,0.00,,---,0.00,VWS V14.01,2013-02-25 17:46:00,
2013-02-25 12:51:00,30.7,29.4,30.00,SW,232,7.0,11.0,95,0.00,,---,0.00,VWS V14.01,2013-02-25 17:51:00,
2013-02-25 12:56:00,30.7,29.2,30.00,SW,227,7.0,11.0,94,0.00,,---,0.00,VWS V14.01,2013-02-25 17:56:00,
2013-02-25 13:00:00,30.7,29.2,30.00,WSW,257,5.0,11.0,94,0.00,,---,0.00,VWS V14.01,2013-02-25 18:00:00,
2013-02-25 13:01:00,30.8,29.5,30.00,WSW,244,4.0,11.0,95,0.00,,---,0.00,VWS V14.01,2013-02-25 18:01:00,
2013-02-25 13:06:00,31.0,29.5,30.00,SW,218,4.0,5.0,94,0.00,,---,0.00,VWS V14.01,2013-02-25 18:06:00,
2013-02-25 13:11:00,31.1,29.8,30.00,SSW,208,2.0,7.0,95,0.00,,---,0.00,VWS V14.01,2013-02-25 18:11:00,
2013-02-25 13:16:00,31.3,29.8,30.00,WSW,253,8.0,9.0,94,0.00,,---,0.00,VWS V14.01,2013-02-25 18:16:00,
2013-02-25 13:21:00,30.7,28.9,30.00,West,263,5.0,9.0,93,0.00,,---,0.00,VWS V14.01,2013-02-25 18:21:00,
2013-02-25 13:26:00,31.3,29.5,30.00,WSW,237,3.0,9.0,93,0.00,,---,0.00,VWS V14.01,2013-02-25 18:26:00,
2013-02-25 13:30:00,31.2,28.9,30.00,WSW,248,2.0,9.0,91,0.00,,---,0.00,VWS V14.01,2013-02-25 18:30:00,
2013-02-25 13:31:00,31.3,29.2,30.00,WSW,250,5.0,9.0,92,0.00,,---,0.00,VWS V14.01,2013-02-25 18:31:00,
2013-02-25 13:36:00,31.3,29.2,30.00,West,271,4.0,4.0,92,0.00,,---,0.00,VWS V14.01,2013-02-25 18:36:00,
2013-02-25 13:41:00,31.8,29.2,30.00,West,264,3.0,7.0,90,0.00,,---,0.00,VWS V14.01,2013-02-25 18:41:00,
2013-02-25 13:46:00,32.4,29.8,30.00,SW,224,4.0,7.0,90,0.00,,---,0.00,VWS V14.01,2013-02-25 18:46:00,
2013-02-25 13:51:00,32.6,29.2,30.00,SSW,201,4.0,8.0,87,0.00,,---,0.00,VWS V14.01,2013-02-25 18:51:00,
2013-02-25 13:56:00,32.7,29.3,30.00,WNW,286,3.0,8.0,87,0.00,,---,0.00,VWS V14.01,2013-02-25 18:56:00,
2013-02-25 14:00:00,33.4,29.4,30.00,West,279,4.0,9.0,85,0.00,,---,0.00,VWS V14.01,2013-02-25 19:00:00,
2013-02-25 14:01:00,33.1,28.8,30.00,WSW,247,7.0,9.0,84,0.00,,---,0.00,VWS V14.01,2013-02-25 19:01:00,
2013-02-25 14:06:00,33.6,29.6,30.00,West,276,9.0,11.0,85,0.00,,---,0.00,VWS V14.01,2013-02-25 19:06:00,
2013-02-25 14:11:00,34.0,29.1,30.00,West,267,6.0,11.0,82,0.00,,---,0.00,VWS V14.01,2013-02-25 19:11:00,
2013-02-25 14:16:00,33.9,28.1,30.00,SW,233,5.0,11.0,79,0.00,,---,0.00,VWS V14.01,2013-02-25 19:16:00,
2013-02-25 14:21:00,34.1,28.9,30.01,SW,229,3.0,11.0,81,0.00,,---,0.00,VWS V14.01,2013-02-25 19:21:00,
2013-02-25 14:26:00,34.5,28.4,30.01,WNW,286,4.0,11.0,78,0.00,,---,0.00,VWS V14.01,2013-02-25 19:26:00,
2013-02-25 14:30:00,35.6,29.1,30.01,SSW,206,7.0,11.0,77,0.00,,---,0.00,VWS V14.01,2013-02-25 19:30:00,
2013-02-25 14:31:00,35.1,28.3,30.01,SW,235,2.0,11.0,76,0.00,,---,0.00,VWS V14.01,2013-02-25 19:31:00,
2013-02-25 14:36:00,35.6,27.8,30.01,SW,229,3.0,7.0,73,0.00,,---,0.00,VWS V14.01,2013-02-25 19:36:00,
2013-02-25 14:41:00,36.5,27.7,30.02,SW,220,1.0,7.0,70,0.00,,---,0.00,VWS V14.01,2013-02-25 19:41:00,
2013-02-25 14:46:00,36.8,28.0,30.01,West,269,6.0,8.0,70,0.00,,---,0.00,VWS V14.01,2013-02-25 19:46:00,
2013-02-25 14:51:00,36.6,27.0,30.01,WSW,254,5.0,11.0,68,0.00,,---,0.00,VWS V14.01,2013-02-25 19:51:00,
2013-02-25 14:56:00,36.1,27.3,30.02,SW,228,3.0,11.0,70,0.00,,---,0.00,VWS V14.01,2013-02-25 19:56:00,
2013-02-25 15:00:00,35.8,27.3,30.02,SW,227,5.0,11.0,71,0.00,,---,0.00,VWS V14.01,2013-02-25 20:00:00,
2013-02-25 15:01:00,35.9,27.8,30.02,SW,223,1.0,11.0,72,0.00,,---,0.00,VWS V14.01,2013-02-25 20:01:00,
2013-02-25 15:06:00,35.8,27.7,30.02,West,268,0.0,5.0,72,0.00,,---,0.00,VWS V14.01,2013-02-25 20:06:00,
2013-02-25 15:11:00,36.0,28.9,30.03,SSE,148,0.0,5.0,75,0.00,,---,0.00,VWS V14.01,2013-02-25 20:11:00,
2013-02-25 15:16:00,36.0,27.9,30.03,SSW,192,0.0,5.0,72,0.00,,---,0.00,VWS V14.01,2013-02-25 20:16:00,
2013-02-25 15:21:00,36.1,28.3,30.03,SSW,207,2.0,7.0,73,0.00,,---,0.00,VWS V14.01,2013-02-25 20:21:00,
2013-02-25 15:26:00,36.3,28.1,30.03,WSW,240,4.0,7.0,72,0.00,,---,0.00,VWS V14.01,2013-02-25 20:26:00,
2013-02-25 15:30:00,36.8,27.2,30.04,WSW,252,2.0,7.0,68,0.00,,---,0.00,VWS V14.01,2013-02-25 20:30:00,
2013-02-25 15:31:00,36.8,27.6,30.04,West,267,3.0,7.0,69,0.00,,---,0.00,VWS V14.01,2013-02-25 20:31:00,
2013-02-25 15:36:00,36.9,27.7,30.04,SSW,206,2.0,4.0,69,0.00,,---,0.00,VWS V14.01,2013-02-25 20:36:00,
2013-02-25 15:41:00,37.7,27.0,30.04,West,270,6.0,6.0,65,0.00,,---,0.00,VWS V14.01,2013-02-25 20:41:00,
2013-02-25 15:46:00,37.7,26.3,30.05,SSW,199,3.0,8.0,63,0.00,,---,0.00,VWS V14.01,2013-02-25 20:46:00,
2013-02-25 15:51:00,37.6,26.2,30.05,SSW,193,6.0,8.0,63,0.00,,---,0.00,VWS V14.01,2013-02-25 20:51:00,
2013-02-25 15:56:00,36.8,25.0,30.05,SW,229,1.0,8.0,62,0.00,,---,0.00,VWS V14.01,2013-02-25 20:56:00,
2013-02-25 16:00:00,37.0,24.8,30.05,SW,234,2.0,8.0,61,0.00,,---,0.00,VWS V14.01,2013-02-25 21:00:00,
2013-02-25 16:01:00,37.0,25.2,30.05,WSW,243,3.0,8.0,62,0.00,,---,0.00,VWS V14.01,2013-02-25 21:01:00,
2013-02-25 16:06:00,37.0,25.2,30.05,SW,234,2.0,3.0,62,0.00,,---,0.00,VWS V14.01,2013-02-25 21:06:00,
2013-02-25 16:11:00,37.3,24.7,30.06,West,259,2.0,6.0,60,0.00,,---,0.00,VWS V14.01,2013-02-25 21:11:00,
2013-02-25 16:16:00,38.1,26.2,30.06,SSW,212,0.0,6.0,62,0.00,,---,0.00,VWS V14.01,2013-02-25 21:16:00,
2013-02-25 16:21:00,38.2,24.7,30.06,SW,232,2.0,6.0,58,0.00,,---,0.00,VWS V14.01,2013-02-25 21:21:00,
2013-02-25 16:26:00,37.8,24.8,30.06,SW,227,3.0,6.0,59,0.00,,---,0.00,VWS V14.01,2013-02-25 21:26:00,
2013-02-25 16:30:00,36.8,24.6,30.07,SW,221,1.0,6.0,61,0.00,,---,0.00,VWS V14.01,2013-02-25 21:30:00,
2013-02-25 16:31:00,37.0,23.6,30.07,SW,221,2.0,6.0,58,0.00,,---,0.00,VWS V14.01,2013-02-25 21:31:00,
2013-02-25 16:36:00,36.8,24.2,30.07,SW,221,2.0,3.0,60,0.00,,---,0.00,VWS V14.01,2013-02-25 21:36:00,
2013-02-25 16:41:00,36.3,24.1,30.07,SW,221,0.0,4.0,61,0.00,,---,0.00,VWS V14.01,2013-02-25 21:41:00,
2013-02-25 16:46:00,36.3,24.1,30.07,SW,221,0.0,4.0,61,0.00,,---,0.00,VWS V14.01,2013-02-25 21:46:00,
2013-02-25 16:51:00,36.1,25.1,30.08,SW,221,0.0,4.0,64,0.00,,---,0.00,VWS V14.01,2013-02-25 21:51:00,
2013-02-25 16:56:00,36.0,25.8,30.08,SW,221,0.0,4.0,66,0.00,,---,0.00,VWS V14.01,2013-02-25 21:56:00,
2013-02-25 17:00:00,36.1,27.6,30.08,SW,221,0.0,4.0,71,0.00,,---,0.00,VWS V14.01,2013-02-25 22:00:00,
2013-02-25 17:01:00,36.0,27.2,30.08,SW,221,0.0,4.0,70,0.00,,---,0.00,VWS V14.01,2013-02-25 22:01:00,
2013-02-25 17:06:00,36.2,28.1,30.08,SW,221,0.0,0.0,72,0.00,,---,0.00,VWS V14.01,2013-02-25 22:06:00,
2013-02-25 17:11:00,36.0,27.5,30.08,SW,221,0.0,0.0,71,0.00,,---,0.00,VWS V14.01,2013-02-25 22:11:00,
2013-02-25 17:16:00,35.7,26.9,30.08,SW,221,0.0,0.0,70,0.00,,---,0.00,VWS V14.01,2013-02-25 22:16:00,
2013-02-25 17:21:00,35.1,26.7,30.08,SW,221,0.0,0.0,71,0.00,,---,0.00,VWS V14.01,2013-02-25 22:21:00,
2013-02-25 17:26:00,34.6,26.5,30.08,SW,221,0.0,0.0,72,0.00,,---,0.00,VWS V14.01,2013-02-25 22:26:00,
2013-02-25 17:30:00,34.0,26.3,30.08,SW,221,0.0,0.0,73,0.00,,---,0.00,VWS V14.01,2013-02-25 22:30:00,
2013-02-25 17:31:00,34.3,26.2,30.08,SW,221,0.0,0.0,72,0.00,,---,0.00,VWS V14.01,2013-02-25 22:31:00,
2013-02-25 17:36:00,33.8,25.7,30.09,SW,221,0.0,0.0,72,0.00,,---,0.00,VWS V14.01,2013-02-25 22:36:00,
2013-02-25 17:41:00,33.3,25.6,30.09,SW,221,0.0,0.0,73,0.00,,---,0.00,VWS V14.01,2013-02-25 22:41:00,
2013-02-25 17:46:00,32.8,26.1,30.09,SW,221,0.0,0.0,76,0.00,,---,0.00,VWS V14.01,2013-02-25 22:46:00,
2013-02-25 17:51:00,32.2,24.9,30.09,SW,221,0.0,0.0,74,0.00,,---,0.00,VWS V14.01,2013-02-25 22:51:00,
2013-02-25 17:56:00,31.6,24.6,30.09,SW,221,0.0,0.0,75,0.00,,---,0.00,VWS V14.01,2013-02-25 22:56:00,
2013-02-25 18:00:00,31.0,25.6,30.09,SW,221,0.0,0.0,80,0.00,,---,0.00,VWS V14.01,2013-02-25 23:00:00,
2013-02-25 18:01:00,31.4,25.6,30.09,SW,221,0.0,0.0,79,0.00,,---,0.00,VWS V14.01,2013-02-25 23:01:00,
2013-02-25 18:06:00,31.0,25.9,30.09,SW,221,0.0,0.0,81,0.00,,---,0.00,VWS V14.01,2013-02-25 23:06:00,
2013-02-25 18:11:00,30.5,25.7,30.09,SW,221,0.0,0.0,82,0.00,,---,0.00,VWS V14.01,2013-02-25 23:11:00,
2013-02-25 18:16:00,30.1,25.0,30.09,SW,221,1.0,1.0,81,0.00,,---,0.00,VWS V14.01,2013-02-25 23:16:00,
2013-02-25 18:21:00,29.9,25.4,30.09,SW,221,0.0,1.0,83,0.00,,---,0.00,VWS V14.01,2013-02-25 23:21:00,
2013-02-25 18:26:00,29.7,25.2,30.09,SW,221,0.0,1.0,83,0.00,,---,0.00,VWS V14.01,2013-02-25 23:26:00,
2013-02-25 18:30:00,29.6,24.5,30.10,SW,221,0.0,2.0,81,0.00,,---,0.00,VWS V14.01,2013-02-25 23:30:00,
2013-02-25 18:31:00,29.5,24.4,30.10,SW,221,1.0,2.0,81,0.00,,---,0.00,VWS V14.01,2013-02-25 23:31:00,
2013-02-25 18:36:00,29.6,24.5,30.10,SW,221,0.0,0.0,81,0.00,,---,0.00,VWS V14.01,2013-02-25 23:36:00,
2013-02-25 18:41:00,29.7,24.9,30.10,SW,221,0.0,1.0,82,0.00,,---,0.00,VWS V14.01,2013-02-25 23:41:00,
2013-02-25 18:46:00,29.7,24.9,30.10,SW,221,0.0,1.0,82,0.00,,---,0.00,VWS V14.01,2013-02-25 23:46:00,
2013-02-25 18:51:00,29.8,25.0,30.10,SW,221,0.0,1.0,82,0.00,,---,0.00,VWS V14.01,2013-02-25 23:51:00,
2013-02-25 18:56:00,29.8,25.0,30.10,SW,221,0.0,1.0,82,0.00,,---,0.00,VWS V14.01,2013-02-25 23:56:00,
2013-02-25 19:00:00,28.9,24.1,30.10,SW,221,0.0,1.0,82,0.00,,---,0.00,VWS V14.01,2013-02-26 00:00:00,
2013-02-25 19:01:00,29.4,24.6,30.10,SW,221,0.0,1.0,82,0.00,,---,0.00,VWS V14.01,2013-02-26 00:01:00,
2013-02-25 19:06:00,28.6,23.8,30.10,SW,221,0.0,0.0,82,0.00,,---,0.00,VWS V14.01,2013-02-26 00:06:00,
2013-02-25 19:11:00,28.2,23.7,30.10,SW,221,0.0,0.0,83,0.00,,---,0.00,VWS V14.01,2013-02-26 00:11:00,
2013-02-25 19:16:00,28.1,23.9,30.10,SW,221,0.0,0.0,84,0.00,,---,0.00,VWS V14.01,2013-02-26 00:16:00,
2013-02-25 19:21:00,28.2,24.3,30.10,SW,221,0.0,0.0,85,0.00,,---,0.00,VWS V14.01,2013-02-26 00:21:00,
2013-02-25 19:26:00,28.2,24.0,30.10,SW,221,0.0,0.0,84,0.00,,---,0.00,VWS V14.01,2013-02-26 00:26:00,
2013-02-25 19:30:00,28.4,24.2,30.10,SW,221,0.0,0.0,84,0.00,,---,0.00,VWS V14.01,2013-02-26 00:30:00,
2013-02-25 19:31:00,28.4,24.2,30.10,SW,221,0.0,0.0,84,0.00,,---,0.00,VWS V14.01,2013-02-26 00:31:00,
2013-02-25 19:36:00,28.4,24.2,30.10,SW,221,0.0,0.0,84,0.00,,---,0.00,VWS V14.01,2013-02-26 00:36:00,
2013-02-25 19:41:00,28.5,24.3,30.10,SW,221,0.0,0.0,84,0.00,,---,0.00,VWS V14.01,2013-02-26 00:41:00,
2013-02-25 19:46:00,27.9,23.7,30.10,SW,221,0.0,0.0,84,0.00,,---,0.00,VWS V14.01,2013-02-26 00:46:00,
2013-02-25 19:51:00,27.7,23.2,30.10,SW,221,0.0,0.0,83,0.00,,---,0.00,VWS V14.01,2013-02-26 00:51:00,
2013-02-25 19:56:00,27.4,23.2,30.10,SW,221,0.0,0.0,84,0.00,,---,0.00,VWS V14.01,2013-02-26 00:56:00,
2013-02-25 20:00:00,26.8,22.9,30.10,SW,221,0.0,1.0,85,0.00,,---,0.00,VWS V14.01,2013-02-26 01:00:00,
2013-02-25 20:01:00,27.1,22.9,30.11,SW,221,1.0,1.0,84,0.00,,---,0.00,VWS V14.01,2013-02-26 01:01:00,
2013-02-25 20:06:00,26.8,22.9,30.10,SW,221,0.0,0.0,85,0.00,,---,0.00,VWS V14.01,2013-02-26 01:06:00,
2013-02-25 20:10:00,25.9,22.3,30.10,SW,221,0.0,1.0,86,0.00,,---,0.00,VWS V14.01,2013-02-26 01:10:00,
2013-02-25 20:15:00,25.3,21.7,30.10,SW,221,0.0,2.0,86,0.00,,---,0.00,VWS V14.01,2013-02-26 01:15:00,
2013-02-25 20:20:00,25.1,21.8,30.11,SW,221,0.0,2.0,87,0.00,,---,0.00,VWS V14.01,2013-02-26 01:20:00,
2013-02-25 20:25:00,25.2,21.9,30.11,SW,221,1.0,2.0,87,0.00,,---,0.00,VWS V14.01,2013-02-26 01:25:00,
2013-02-25 20:30:00,25.1,21.8,30.11,SW,221,0.0,3.0,87,0.00,,---,0.00,VWS V14.01,2013-02-26 01:30:00,
2013-02-25 20:35:00,25.0,21.7,30.11,SW,221,1.0,2.0,87,0.00,,---,0.00,VWS V14.01,2013-02-26 01:35:00,
2013-02-25 20:40:00,24.8,21.8,30.11,SW,221,0.0,2.0,88,0.00,,---,0.00,VWS V14.01,2013-02-26 01:40:00,
2013-02-25 20:45:00,24.7,21.7,30.12,SW,221,1.0,2.0,88,0.00,,---,0.00,VWS V14.01,2013-02-26 01:45:00,
2013-02-25 20:50:00,24.4,21.4,30.12,SW,221,0.0,2.0,88,0.00,,---,0.00,VWS V14.01,2013-02-26 01:50:00,
2013-02-25 20:55:00,24.4,21.6,30.12,SW,221,0.0,2.0,89,0.00,,---,0.00,VWS V14.01,2013-02-26 01:55:00,
2013-02-25 21:00:00,24.4,21.6,30.12,SW,221,0.0,2.0,89,0.00,,---,0.00,VWS V14.01,2013-02-26 02:00:00,
2013-02-25 21:05:00,24.6,21.8,30.13,SW,221,0.0,0.0,89,0.00,,---,0.00,VWS V14.01,2013-02-26 02:05:00,
2013-02-25 21:10:00,24.8,21.8,30.13,SW,221,0.0,0.0,88,0.00,,---,0.00,VWS V14.01,2013-02-26 02:10:00,
2013-02-25 21:15:00,25.0,22.0,30.13,SW,221,0.0,0.0,88,0.00,,---,0.00,VWS V14.01,2013-02-26 02:15:00,
2013-02-25 21:20:00,24.8,21.5,30.13,SW,221,0.0,0.0,87,0.00,,---,0.00,VWS V14.01,2013-02-26 02:20:00,
2013-02-25 21:25:00,24.3,21.0,30.13,SW,221,0.0,0.0,87,0.00,,---,0.00,VWS V14.01,2013-02-26 02:25:00,
2013-02-25 21:30:00,24.0,21.0,30.13,SW,221,0.0,0.0,88,0.00,,---,0.00,VWS V14.01,2013-02-26 02:30:00,
2013-02-25 21:35:00,23.5,20.2,30.13,SW,221,1.0,1.0,87,0.00,,---,0.00,VWS V14.01,2013-02-26 02:35:00,
2013-02-25 21:40:00,22.7,19.4,30.13,SW,221,0.0,2.0,87,0.00,,---,0.00,VWS V14.01,2013-02-26 02:40:00,
2013-02-25 21:45:00,22.5,19.5,30.13,SW,221,0.0,2.0,88,0.00,,---,0.00,VWS V14.01,2013-02-26 02:45:00,
2013-02-25 21:50:00,22.6,19.9,30.14,SW,221,0.0,2.0,89,0.00,,---,0.00,VWS V14.01,2013-02-26 02:50:00,
2013-02-25 21:55:00,22.6,19.9,30.14,SW,221,0.0,2.0,89,0.00,,---,0.00,VWS V14.01,2013-02-26 02:55:00,
2013-02-25 22:00:00,22.3,19.3,30.14,SW,221,1.0,2.0,88,0.00,,---,0.00,VWS V14.01,2013-02-26 03:00:00,
2013-02-25 22:05:00,21.6,18.6,30.14,SW,221,0.0,1.0,88,0.00,,---,0.00,VWS V14.01,2013-02-26 03:05:00,
2013-02-25 22:10:00,21.4,18.7,30.14,SW,221,0.0,1.0,89,0.00,,---,0.00,VWS V14.01,2013-02-26 03:10:00,
2013-02-25 22:15:00,21.5,19.0,30.13,SW,221,0.0,1.0,90,0.00,,---,0.00,VWS V14.01,2013-02-26 03:15:00,
2013-02-25 22:20:00,21.5,19.0,30.13,SW,221,0.0,2.0,90,0.00,,---,0.00,VWS V14.01,2013-02-26 03:20:00,
2013-02-25 22:25:00,21.5,19.0,30.14,SW,221,0.0,2.0,90,0.00,,---,0.00,VWS V14.01,2013-02-26 03:25:00,
2013-02-25 22:30:00,21.7,19.2,30.14,SW,221,0.0,2.0,90,0.00,,---,0.00,VWS V14.01,2013-02-26 03:30:00,
2013-02-25 22:35:00,21.8,19.3,30.14,SW,221,0.0,0.0,90,0.00,,---,0.00,VWS V14.01,2013-02-26 03:35:00,
2013-02-25 22:40:00,21.9,19.4,30.14,SW,221,0.0,0.0,90,0.00,,---,0.00,VWS V14.01,2013-02-26 03:40:00,
2013-02-25 22:45:00,21.8,19.3,30.14,SW,221,0.0,0.0,90,0.00,,---,0.00,VWS V14.01,2013-02-26 03:45:00,
2013-02-25 22:50:00,21.9,19.4,30.14,SW,221,0.0,0.0,90,0.00,,---,0.00,VWS V14.01,2013-02-26 03:50:00,
2013-02-25 22:55:00,21.9,19.2,30.14,SW,221,0.0,0.0,89,0.00,,---,0.00,VWS V14.01,2013-02-26 03:55:00,
2013-02-25 23:00:00,21.6,18.9,30.14,SW,221,0.0,0.0,89,0.00,,---,0.00,VWS V14.01,2013-02-26 04:00:00,
2013-02-25 23:05:00,21.1,18.4,30.14,SW,221,1.0,1.0,89,0.00,,---,0.00,VWS V14.01,2013-02-26 04:05:00,
2013-02-25 23:10:00,20.8,18.1,30.14,SW,221,2.0,3.0,89,0.00,,---,0.00,VWS V14.01,2013-02-26 04:10:00,
2013-02-25 23:15:00,21.0,18.5,30.14,SW,221,1.0,3.0,90,0.00,,---,0.00,VWS V14.01,2013-02-26 04:15:00,
2013-02-25 23:20:00,21.1,18.6,30.14,SW,221,2.0,3.0,90,0.00,,---,0.00,VWS V14.01,2013-02-26 04:20:00,
2013-02-25 23:25:00,21.8,19.6,30.14,SW,221,2.0,4.0,91,0.00,,---,0.00,VWS V14.01,2013-02-26 04:25:00,
2013-02-25 23:30:00,22.6,20.1,30.15,SW,221,1.0,4.0,90,0.00,,---,0.00,VWS V14.01,2013-02-26 04:30:00,
2013-02-25 23:35:00,22.8,20.0,30.15,SW,221,1.0,2.0,89,0.00,,---,0.00,VWS V14.01,2013-02-26 04:35:00,
2013-02-25 23:40:00,22.7,20.0,30.15,SW,221,2.0,2.0,89,0.00,,---,0.00,VWS V14.01,2013-02-26 04:40:00,
2013-02-25 23:45:00,22.9,20.1,30.15,SW,221,1.0,2.0,89,0.00,,---,0.00,VWS V14.01,2013-02-26 04:45:00,
2013-02-25 23:50:00,23.1,20.4,30.15,SW,221,1.0,2.0,89,0.00,,---,0.00,VWS V14.01,2013-02-26 04:50:00,
2013-02-25 23:55:00,23.2,20.5,30.15,SW,221,0.0,2.0,89,0.00,,---,0.00,VWS V14.01,2013-02-26 04:55:00,